Weather History for FAEL - August, 2014

Change the Weather History Date:

Wednesday, August 13, 2014

  Actual Average Record
Temperature  
Mean Temperature 76 °F -  
Max Temperature 92 °F 67 °F 92 °F (2014)
Min Temperature 60 °F 51 °F 44 °F (2001)
Cooling Degree Days 11    
Growing Degree Days 26 (Base 50)    
Moisture  
Dew Point 50 °F    
Average Humidity 41    
Maximum Humidity 77    
Minimum Humidity 13    
Precipitation  
Precipitation 0.00 in 0.10 in - ()
Sea Level Pressure  
Sea Level Pressure 29.92 in    
Wind  
Wind Speed 10 mph ()    
Max Wind Speed 25 mph    
Max Gust Speed 37 mph    
Visibility 12.3 miles    
Events      
Averages and records for this station are not official NWS values.
T = Trace of Precipitation, MM = Missing Value Source: Averaged Metar Reports

Daily Weather History Graph

Daily Weather History Graph

Search for Another Location

Airport or City:

Trip Planner

Search our weather history database for the weather conditions in past years. The results will help you decide how hot, cold, wet, or windy it might be!

Date:

Astronomy

Aug. 13, 2014 Rise Set
Actual Time 6:48 AM SAST 5:38 PM SAST
Civil Twilight 6:23 AM SAST 6:04 PM SAST
Nautical Twilight 5:53 AM SAST 6:33 PM SAST
Astronomical Twilight 5:25 AM SAST 7:02 PM SAST
Moon 8:58 PM SAST (8/13) 8:21 AM SAST (8/13)
Length of Visible Light 11h 41m
Length of Day
10h 50m
Waning Gibbous, 90% of the Moon is Illuminated
Aug 13
Waning Gibbous
Aug 17
Last Quarter
Aug 25
New
Sep 2
First Quarter
Sep 9
Full

Hourly Weather History & Observations

Time (SAST) Temp. Heat Index Dew Point Humidity Pressure Visibility Wind Dir Wind Speed Gust Speed Precip Events Conditions
2:00 AM 67 °F - 50 °F 43% 30.01 in 6 mi NNW 5.8 mph - -  
5:00 AM 69.8 °F - 48.2 °F 46% 29.98 in - NW 9.2 mph - N/A   Clear
6:00 AM 69.8 °F - 46.4 °F 43% 29.98 in - NNW 12.7 mph - N/A   Clear
7:00 AM 69.8 °F - 46.4 °F 43% 29.98 in - NNW 10.4 mph - N/A   Clear
8:00 AM 72 °F - 47 °F 30% 29.99 in 25 mi NNW 12.7 mph - -   Clear
8:00 AM 71.6 °F - 46.4 °F 41% 29.98 in - NNW 12.7 mph - N/A   Clear
9:00 AM 73.4 °F - 48.2 °F 41% 29.98 in - NNW 15.0 mph - N/A   Clear
10:00 AM 78.8 °F - 51.8 °F 39% 29.98 in - North 13.8 mph - N/A   Clear
10:15 AM 80.6 °F - 51.8 °F 37% 29.98 in - North 15.0 mph - N/A   Clear
11:00 AM 82.4 °F - 50.0 °F 32% 29.95 in - North 12.7 mph - N/A   Clear
12:00 PM 87.8 °F - 50.0 °F 27% 29.92 in - North 10.4 mph - N/A   Clear
1:00 PM 89.6 °F - 48.2 °F 24% 29.89 in - North 8.1 mph - N/A   Clear
2:00 PM 92 °F - 47 °F 13% 29.85 in 19 mi NNW 6.9 mph - -   Clear
2:00 PM 91.4 °F - 46.4 °F 21% 29.86 in - NNW 6.9 mph - N/A   Clear
4:00 PM 80.6 °F 80.5 °F 55.4 °F 42% 29.83 in - NE 9.2 mph - N/A   Clear
5:00 PM 78.8 °F - 53.6 °F 42% 29.83 in - NE 10.4 mph - N/A   Clear
6:00 PM 77.0 °F - 50.0 °F 39% 29.83 in - NE 8.1 mph - N/A   Clear
7:00 PM 75.2 °F - 51.8 °F 44% 29.83 in - NNE 6.9 mph - N/A   Clear
7:34 PM 66.2 °F - 55.4 °F 68% 29.92 in - SW 25.3 mph 36.8 mph N/A   Clear
8:00 PM 64 °F - 56 °F 67% 29.93 in 12 mi SW 19.6 mph - -   Clear
8:00 PM 64.4 °F - 57.2 °F 77% 29.92 in - SW 19.6 mph - N/A   Clear